Погода в Амге

Погода в Амге : погода сейчас, прогноз погоды и архив. Всё, что Вы хотите узнать о погоде в Амге!

Хотите узнать прогноз погоды в Амге? Тогда Вам сюда: Погода в Амге

Поиск расширенной информации на нашем сайте:

Другие новости

Новости СМИ2

Главная страница сайта

Новости сайта

03.07.2017

Напоминаем, что на нашем специализированном сайте Метеоцентр.Азия вы можете получить высокодетализированные автоматические прогнозы погоды по пунктам России, СНГ и мира в авиационном формате (включающие направление и скорость ветра, видимость, явления погоды, количество и форму облачности, нижнюю и верхнюю границу облачности).

Рекомендуем: Кофе с собой тишинка территория кофе.

Погода в Амге - сегодня

Время (UTC), дата Ветер
(°,м/с) 
Видим.   Явления Облачность Т
(°С)
Тd
(°С)
f(%) Тe
(°С)
Pmin
(гПа)
dP
(гПа)
Po
(мм)
O2
(г/м3)
Тmin Tmax R s Состояние
почвы
15 14.08.18 260 (З) 20000 м    3/0 600 м верхняя 
[Ci fib]
+11.9 +11.5 97 +16  1019.7  0.8  752  288           
18 14.08.18 240 (ЮЗ) 20000 м    3/0 верхняя 
[Ci fib]
+8.8 +8.6 99 +10  1020.6  0.7  752  292           
21 14.08.18 220 (ЮЗ) 0500 м  туман  ясно 
+8.1 +7.9 99 +9  1021.7  753  293           
03 15.08.18 260 (З) 20000 м    3/1 600 м верхняя 
[Cu hum|Ci fib]
+23.8 +12.9 50 +29  1019.4  -1.2  752  276           
06 15.08.18 040 (СВ) 20000 м    10/3 600 м кучево-дожд., средняя, верхняя 
[Cb calv|Ac trans|Ci fib]
+25.6 +9.9 37 +27  1017.7  -1.6  751  275           
09 15.08.18 140 (ЮВ) 20000 м    10/1 600 м средняя, верхняя 
[Cu hum|Ac trans|Ci fib]
+25 +11 41 +28  1016.5  -1.2  750  275           
12 15.08.18 140 (ЮВ) 20000 м    10/0 средняя, верхняя 
[Ac trans|Ci fib]
+19.4 +10.8 57 +22  1017.5  0.7  750  280    +26       
15 15.08.18 130 (ЮВ) 20000 м    6/0 средняя, верхняя 
[Ac trans|Ci fib]
+17.9 +9.1 56 +19  1017.6  750  282           
18 15.08.18 320 (СЗ) 20000 м    10/0 верхняя 
[Ci fib]
+7.6 +7 96 +8  1017.7  -0.6  750  293           
21 15.08.18 310 (СЗ) 20000 м    10/0 средняя, верхняя 
[Ac trans|Ci fib]
+9.5 +7.8 89 +10  1016.7  -0.8  749  290           
00 16.08.18 110 (В) 20000 м    10/0 средняя, верхняя 
[Ac trans|Ci fib]
+18.5 +9.2 55 +19  1014.1  -2  748  281  +7.2        сухая 
03 16.08.18 140 (ЮВ) 20000 м    10/0 верхняя 
[Cs]
+22.8 +7.3 37 +23  1011.6  -2.3  746  276           
06 16.08.18 130 (ЮВ) 20000 м    10/0 верхняя 
[Cs]
+25.1 +7 31 +25  1008.8  -2.5  744  273           
09 16.08.18 130 (ЮВ) 20000 м    10/0 средняя, верхняя 
[Ac trans|Cs]
+24 +9.1 39 +24  1007.3  -1.6  743  274           
12 16.08.18 090 (В) 20000 м    10/0 средняя, верхняя 
[Ac trans|Cs]
+21.7 +8 41 +22  1006.3  -1.1  742  276    +25.9       
15 16.08.18 040 (СВ) 20000 м    10/0 средняя, верхняя 
[Ac trans|Cs]
+17.7 +10.6 63 +21  1005.5  -1.1  741  279           
18 16.08.18 040 (СВ) 20000 м    10/4 600 м средняя 
[Sc|Ac trans]
+15.1 +11 76 +19  1004.8  -0.8  741  281           
21 16.08.18 060 (СВ) 20000 м    10/1 600 м средняя, верхняя 
[Sc|Ac trans|Ci fib]
+13.8 +9.5 75 +16  1004.1  -0.7  740  282           
00 17.08.18 040 (СВ) 20000 м    10/1 600 м средняя, верхняя 
[Sc|Ac trans|Cc]
+21.2 +12.8 59 +27  1003  -0.6  740  274  +12.5        сухая 
03 17.08.18 тихо ()   20000 м  гроза, ливневой дождь  10/8 600 м кучево-дожд., средняя, верхняя 
[Cb calv|Ac trans|Cc]
+22.9 +16 65 +34  1002.9  740  272           
06 17.08.18 050 (СВ) 20000 м  {гроза, ливн. осадки}  10/5 600 м кучево-дожд., средняя, верхняя 
[Cb calv|Ac lent|Cs]
+22.3 +18.2 78 +37  1003  0.1  740  271           
09 17.08.18 070 (В) 20000 м    10/4 600 м кучево-дожд., средняя, верхняя 
[Cb calv|Ac lent|Cs]
+23.8 +18.1 70 +39  1002.2  -0.7  739  270           
12 17.08.18 тихо ()   20000 м    10/1 600 м средняя, верхняя 
[Sc diur, vesp|Ac trans|Cs]
+20.5 +17.1 81 +33  1002.7  0.3  740  273    +24.6     
15 17.08.18 тихо ()   20000 м    10/0 средняя, верхняя 
[Ac trans|Cs]
+17.8 +16.5 92 +30  1002.5  -0.5  739  276           
18 17.08.18 090 (В) 20000 м    10/0 средняя, верхняя 
[Ac trans|Cs]
+16.3 +15.8 97 +29  1002.4  -0.1  739  278           
Время (UTC), дата Ветер
(°,м/с) 
Видим.   Явления Облачность Т
(°С)
Тd
(°С)
f(%) Тe
(°С)
Pmin
(гПа)
dP
(гПа)
Po
(мм)
O2
(г/м3)
Тmin Tmax R s Состояние
почвы

Для получения пояснительной информации подведите курсор к названию столбца.

ПОГОДА в Амге - архив

Всё, что Вы хотите узнать о погоде в Амге - удобно и подробно!

Выберите нужную дату (начиная с 1 января 2015* года) и нажмите кнопку "Найти".
Будут отображены архивные сводки погоды по пункту Амга, начиная с указанной даты.


Отображать данные в формате CSV (для использования в таблицах Excel)


Внимание! Наш архив погоды предназначен исключительно для личного некоммерческого использования в познавательных целях. Если Вам необходимы официальные справки о состоянии погоды (для производственных, юридических, коммерческих и т.п. целей), обращайтесь в органы Росгидромета.

*Примечание: данная дата относится к архиву по метеостанциям СССР (Россия, СНГ, Балтия).
Архив по метеостанциям Зарубежной Европы и Азии (кроме Китая) хранится 10 дней, по другим регионам земного шара (Китай, Африка, Америка, Австралия, Океания) - 1 день.

Амга - район местоположения метеостанции


Название, широта, долгота, высота метеостанции:
Амга 60.9°ш. 132°д. 146 м над ур. моря [Российская Федерация]

Дополнительная информация

В oтличие oт бoльшинства пoгoдных сайтoв мы публикуем пoдрoбную метеoинфoрмацию в детальнoм прoфессиoнальнoм фoрмате.

Характеристики температуры и влажнoсти вoздуха измеряются на высoте 2 м в тени вдали oт зданий и деревьев.
Скoрoсть ветра измеряется на высoте 10 м (на урoвне рoста челoвека скoрoсть ветра ниже в 1.5-2 раза). Если метеoстанция нахoдится в гoрoде или в лесу, тo скoрoсть ветра занижена на 2-4 м/с пo сравнению с oткрытым местoм. Скoрoсть ветра над акватoриями крупных рек и oзёр, а также на вершинах хoлмoв на 2-5 м/с выше, чем в oбычных услoвиях.
Атмoсфернoе давление в разных тoчках местнoсти мoжет значительнo oтличаться oт давления на метеoстанции, в зависимoсти oт услoвий рельефа (при пoдъёме на 10 м давление пoнижается примернo на 1 мм рт.ст.).